THOR ABLESTAR DEB, 172

Orbit data source: Space-Track

THOR ABLESTAR DEB, 172 is space debris in LEO originally from a launch on Thu, 29 Jun 1961 UTC launched from the Air Force Eastern Test Range (AFETR). Debris objects in space refer to the collection of defunct objects orbiting the Earth. Examples of debris include non-operational satellites, rocket bodies, and fragments generated from explosions, collisions, or faulty payload assembly.

Loading next visibility...
Identifier
172, 1961-015AY
Orbit
LEO
Country
Flag of USUS
Related business
Manufacturer
Unknown
Mission
Spacecraft
Bus & Motor
Unknown
Mass
Unknown
Launch date (UTC)
1961-06-29 (65 years ago)
Launch vehicle
Unknown
Launch site
Air Force Eastern Test Range (AFETR)
Object type
Payload
Rocket body
Debris
Shape & HBR
Unknown shape, 0.2 m
Radar Cross Section
Medium (>0.1 m² and <1 m²)

Expand to show TLE details & history
Last TLE update: 12 hours ago

TLE from 12 hours ago
0 THOR ABLESTAR DEB
1 00172U 61015AY  26149.56502378  .00000161  00000-0  29569-3 0  9993
2 00172  67.0667 210.8044 0125953  77.3377 284.1735 13.59247756202588
Epoch: 2026-05-29T13:33Z
TLE epoch observation values (Epoch: 2026-05-29T13:33:38.054Z)
Latitude
-0.00006°
Longitude
120.30223°
Altitude
1,018.727 km
Speed
7.354 km/s
True Right ascension
14h 03m 13s
True Declination
0° 00' 00"
Sunlit
Object was in full shadow at epoch
Visualization orbit readout
Latitude
Unknown
Longitude
Unknown
Altitude
Unknown
Speed
Unknown
Apparent Right ascension
Unknown
Apparent Declination
Unknown
Sunlit
N/A
Visualization observer readout
Local Sidereal Time
10:38:13
Azimuth
Unknown
Elevation
Unknown
Doppler factor
Unknown
Orbital elements
Apogee altitude
1,130.208 km
Perigee altitude
943.421 km
Semi-major axis
7,414.952 km
Eccentricity
0.0126
Inclination
67.0667°
RAAN
210.8044°
Arg. of periapsis
77.3377°
True anomaly
282.76885°
Mean anomaly
284.1735°
Eccentric anomaly
283.4717°
Mean motion
3.39923 °/min
Orbital period
105.91 mins
BSTAR
0.00029569
Loading maneuver chart data...
Computing Atmospheric mass density...
Loading historical data...
Loading historical data...
Loading historical data...
Loading historical data...
Loading historical data...
Loading historical data...
Loading historical data...

Documentation

Showing up to 5 results
|